,,PA_Meas_PMT16A,,PR_Meas_QMR101_102,,RH_Meas_QMH101,,SR_Meas_QMS101,,TA_Meas_QMH101,,GenWind,,GenWind,
time,status,PA,status,PR,status,RH,status,SR,status,TA,status,DirAvg,status,SpdAvg,
2009-11-16, 00:00:04,VALID,917.57,VALID,0,VALID,97.7779,VALID,0.107441,VALID,19.4463,VALID,22,VALID,0.261719,
2009-11-16, 00:01:04,VALID,917.563,VALID,0,VALID,97.7398,VALID,0.107441,VALID,19.4463,VALID,22,VALID,0.328906,
2009-11-16, 00:02:04,VALID,917.558,VALID,0,VALID,97.7551,VALID,0.107441,VALID,19.4463,VALID,22,VALID,0.516797,
2009-11-16, 00:03:04,VALID,917.568,VALID,0,VALID,97.7551,VALID,0.107441,VALID,19.4268,VALID,22,VALID,0.386328,
2009-11-16, 00:04:04,VALID,917.516,VALID,0,VALID,97.7551,VALID,0.107441,VALID,19.4463,VALID,22,VALID,0.411719,
2009-11-16, 00:05:04,VALID,917.521,VALID,0,VALID,97.7474,VALID,0.107441,VALID,19.4268,VALID,22,VALID,0.485156,
2009-11-16, 00:06:04,VALID,917.539,VALID,0,VALID,97.7703,VALID,0.107441,VALID,19.4268,VALID,22,VALID,0.344531,
2009-11-16, 00:07:04,VALID,917.523,VALID,0,VALID,97.7627,VALID,0.107441,VALID,19.4268,VALID,22,VALID,0.327734,
2009-11-16, 00:08:04,VALID,917.524,VALID,0,VALID,97.7474,VALID,0.107441,VALID,19.4268,VALID,22,VALID,0.369922,
2009-11-16, 00:09:04,VALID,917.496,VALID,0,VALID,97.7551,VALID,0.107441,VALID,19.4268,VALID,22,VALID,0.323438,
2009-11-16, 00:10:04,VALID,917.475,VALID,0,VALID,97.7779,VALID,0.107441,VALID,19.4074,VALID,22,VALID,0.386328,
2009-11-16, 00:11:04,VALID,917.484,VALID,0,VALID,97.7703,VALID,0.107441,VALID,19.4268,VALID,22,VALID,0.377734,
2009-11-16, 00:12:04,VALID,917.494,VALID,0,VALID,97.7779,VALID,0.107441,VALID,19.4074,VALID,22,VALID,0.415234,
2009-11-16, 00:13:04,VALID,917.474,VALID,0,VALID,97.7856,VALID,0.107441,VALID,19.4268,VALID,22,VALID,0.416797,
2009-11-16, 00:14:04,VALID,917.462,VALID,0,VALID,97.7932,VALID,0.107441,VALID,19.4074,VALID,22,VALID,0.491016,
2009-11-16, 00:15:04,VALID,917.448,VALID,0,VALID,97.7779,VALID,0.107441,VALID,19.4074,VALID,22,VALID,0.319141,
2009-11-16, 00:16:04,VALID,917.427,VALID,0,VALID,97.7703,VALID,0.107441,VALID,19.4268,VALID,22,VALID,0.266016,
2009-11-16, 00:17:04,VALID,917.446,VALID,0,VALID,97.7627,VALID,0,VALID,19.4283,VALID,22,VALID,0.292969,
2009-11-16, 00:18:05,VALID,917.432,VALID,0,VALID,97.7779,VALID,0.107441,VALID,19.3879,VALID,22,VALID,0.329688,
2009-11-16, 00:19:05,VALID,917.424,VALID,0,VALID,97.7779,VALID,0.107441,VALID,19.4074,VALID,22,VALID,0.238672,
2009-11-16, 00:20:05,VALID,917.406,VALID,0,VALID,97.7932,VALID,0.107441,VALID,19.3879,VALID,22,VALID,0.354297,
2009-11-16, 00:21:05,VALID,917.429,VALID,0,VALID,97.7856,VALID,0.107441,VALID,19.4074,VALID,22,VALID,0.153906,
2009-11-16, 00:22:05,VALID,917.409,VALID,0,VALID,97.7703,VALID,0.107441,VALID,19.3879,VALID,22,VALID,0.279687,
2009-11-16, 00:23:05,VALID,917.416,VALID,0,VALID,97.7856,VALID,0,VALID,19.3893,VALID,22,VALID,0.147656,
2009-11-16, 00:24:05,VALID,917.409,VALID,0,VALID,97.7779,VALID,0.107441,VALID,19.3879,VALID,22,VALID,0.308984,
2009-11-16, 00:25:05,VALID,917.4,VALID,0,VALID,97.7779,VALID,0.107441,VALID,19.3879,VALID,22,VALID,0.203516,
2009-11-16, 00:26:05,VALID,917.413,VALID,0,VALID,97.7703,VALID,0,VALID,19.3684,VALID,22,VALID,0,
2009-11-16, 00:27:05,VALID,917.386,VALID,0,VALID,97.7856,VALID,0.107441,VALID,19.3489,VALID,22,VALID,0,
2009-11-16, 00:28:05,VALID,917.377,VALID,0,VALID,97.7779,VALID,0.107441,VALID,19.3684,VALID,22,VALID,0,
2009-11-16, 00:29:05,VALID,917.369,VALID,0,VALID,97.7856,VALID,0.107441,VALID,19.3684,VALID,22,VALID,0,
2009-11-16, 00:30:05,VALID,917.367,VALID,0,VALID,97.8008,VALID,0,VALID,19.3684,VALID,22,VALID,0,
2009-11-16, 00:31:05,VALID,917.342,VALID,0,VALID,97.8313,VALID,0,VALID,19.3684,VALID,22,VALID,0.132422,
2009-11-16, 00:32:05,VALID,917.333,VALID,0,VALID,97.8237,VALID,0.107441,VALID,19.4088,VALID,22,VALID,0.0730469,
2009-11-16, 00:33:05,VALID,917.331,VALID,0,VALID,97.816,VALID,0.107441,VALID,19.4074,VALID,22,VALID,0,
2009-11-16, 00:34:05,VALID,917.321,VALID,0,VALID,97.8084,VALID,0.107441,VALID,19.4074,VALID,22,VALID,0,
2009-11-16, 00:35:05,VALID,917.334,VALID,0,VALID,97.7856,VALID,0,VALID,19.3879,VALID,22,VALID,0,
2009-11-16, 00:36:05,VALID,917.306,VALID,0,VALID,97.7551,VALID,0,VALID,19.3684,VALID,22,VALID,0,
2009-11-16, 00:37:05,VALID,917.308,VALID,0,VALID,97.7474,VALID,0,VALID,19.3279,VALID,22,VALID,0.208203,
2009-11-16, 00:38:05,VALID,917.318,VALID,0,VALID,97.7551,VALID,0,VALID,19.3294,VALID,22,VALID,0.196875,
2009-11-16, 00:39:05,VALID,917.297,VALID,0,VALID,97.7474,VALID,0.107441,VALID,19.3294,VALID,22,VALID,0,
2009-11-16, 00:40:05,VALID,917.303,VALID,0,VALID,97.7627,VALID,0.107441,VALID,19.3308,VALID,22,VALID,0,
2009-11-16, 00:41:05,VALID,917.321,VALID,0,VALID,97.7932,VALID,0.107441,VALID,19.2904,VALID,22,VALID,0,
2009-11-16, 00:42:05,VALID,917.305,VALID,0.2,VALID,97.8008,VALID,0.107441,VALID,19.3099,VALID,22,VALID,0.328516,
2009-11-16, 00:43:05,VALID,917.326,VALID,0,VALID,97.8084,VALID,0.107441,VALID,19.3099,VALID,22,VALID,0.499609,
2009-11-16, 00:44:05,VALID,917.278,VALID,0,VALID,97.8237,VALID,0,VALID,19.3294,VALID,22,VALID,0.413281,
2009-11-16, 00:45:05,VALID,917.262,VALID,0,VALID,97.8237,VALID,0.107441,VALID,19.3489,VALID,22,VALID,0.348047,
2009-11-16, 00:46:05,VALID,917.283,VALID,0,VALID,97.816,VALID,0.107441,VALID,19.3684,VALID,22,VALID,0.264844,
2009-11-16, 00:47:05,VALID,917.278,VALID,0,VALID,97.8237,VALID,0.107441,VALID,19.3684,VALID,22,VALID,0.369922,
2009-11-16, 00:48:05,VALID,917.263,VALID,0,VALID,97.816,VALID,0.107441,VALID,19.3684,VALID,22,VALID,0.442969,
2009-11-16, 00:49:05,VALID,917.281,VALID,0,VALID,97.8465,VALID,0.107441,VALID,19.3879,VALID,22,VALID,0.262891,
2009-11-16, 00:50:05,VALID,917.277,VALID,0,VALID,97.8008,VALID,0.107441,VALID,19.3879,VALID,22,VALID,0.376563,
2009-11-16, 00:51:05,VALID,917.275,VALID,0,VALID,97.7932,VALID,0,VALID,19.3879,VALID,22,VALID,0.383594,
2009-11-16, 00:52:05,VALID,917.258,VALID,0,VALID,97.816,VALID,0,VALID,19.3684,VALID,22,VALID,0.423828,
2009-11-16, 00:53:05,VALID,917.261,VALID,0,VALID,97.8008,VALID,0.107441,VALID,19.3684,VALID,22,VALID,0.276172,
2009-11-16, 00:54:05,VALID,917.237,VALID,0,VALID,97.7779,VALID,0,VALID,19.3698,VALID,22,VALID,0.143359,
2009-11-16, 00:55:05,VALID,917.248,VALID,0,VALID,97.7856,VALID,0,VALID,19.3294,VALID,22,VALID,0.138672,
2009-11-16, 00:56:05,VALID,917.213,VALID,0,VALID,97.7932,VALID,0,VALID,19.3503,VALID,22,VALID,0.300391,
2009-11-16, 00:57:05,VALID,917.226,VALID,0,VALID,97.7779,VALID,0,VALID,19.3294,VALID,22,VALID,0.273047,
2009-11-16, 00:58:05,VALID,917.184,VALID,0,VALID,97.8084,VALID,0,VALID,19.3294,VALID,22,VALID,0.299609,
2009-11-16, 00:59:05,VALID,917.196,VALID,0,VALID,97.7932,VALID,0,VALID,19.3294,VALID,22,VALID,0.312109,
2009-11-16, 01:00:05,VALID,917.177,VALID,0,VALID,97.7856,VALID,0,VALID,19.3503,VALID,22,VALID,0.440234,
2009-11-16, 01:01:05,VALID,917.192,VALID,0,VALID,97.7932,VALID,0,VALID,19.3099,VALID,22,VALID,0.342578,
2009-11-16, 01:02:05,VALID,917.149,VALID,0,VALID,97.8008,VALID,0,VALID,19.2904,VALID,22,VALID,0.205469,
2009-11-16, 01:03:05,VALID,917.184,VALID,0,VALID,97.7856,VALID,0,VALID,19.3308,VALID,22,VALID,0.113672,
2009-11-16, 01:04:05,VALID,917.176,VALID,0,VALID,97.8313,VALID,0,VALID,19.3099,VALID,22,VALID,0.219141,
2009-11-16, 01:05:05,VALID,917.172,VALID,0,VALID,97.8084,VALID,0,VALID,19.3308,VALID,22,VALID,0.313281,
2009-11-16, 01:06:05,VALID,917.124,VALID,0,VALID,97.8008,VALID,0,VALID,19.3308,VALID,22,VALID,0.412109,
2009-11-16, 01:07:05,VALID,917.125,VALID,0,VALID,97.7932,VALID,0,VALID,19.3308,VALID,22,VALID,0.503125,
2009-11-16, 01:08:05,VALID,917.126,VALID,0,VALID,97.816,VALID,0,VALID,19.3308,VALID,22,VALID,0.496094,
2009-11-16, 01:09:05,VALID,917.112,VALID,0,VALID,97.8389,VALID,0,VALID,19.3308,VALID,22,VALID,0.46875,
2009-11-16, 01:10:05,VALID,917.09,VALID,0,VALID,97.8389,VALID,0,VALID,19.3294,VALID,22,VALID,0.207422,
2009-11-16, 01:11:05,VALID,917.115,VALID,0,VALID,97.816,VALID,0,VALID,19.3503,VALID,22,VALID,0.621875,
2009-11-16, 01:12:05,VALID,917.1,VALID,0,VALID,97.8084,VALID,0,VALID,19.3503,VALID,22,VALID,0.200391,
2009-11-16, 01:13:05,VALID,917.064,VALID,0,VALID,97.8084,VALID,0,VALID,19.3503,VALID,22,VALID,0.347266,
2009-11-16, 01:14:05,VALID,917.049,VALID,0,VALID,97.8008,VALID,0,VALID,19.3503,VALID,22,VALID,0.366797,
2009-11-16, 01:15:05,VALID,917.043,VALID,0,VALID,97.8237,VALID,0,VALID,19.3698,VALID,22,VALID,0.305859,
2009-11-16, 01:16:05,VALID,917.021,VALID,0,VALID,97.8313,VALID,0,VALID,19.3294,VALID,22,VALID,0.308203,
2009-11-16, 01:17:05,VALID,917.029,VALID,0,VALID,97.816,VALID,0,VALID,19.3698,VALID,22,VALID,0.267578,
2009-11-16, 01:18:05,VALID,917.02,VALID,0,VALID,97.8237,VALID,0,VALID,19.3489,VALID,22,VALID,0.383203,
2009-11-16, 01:19:05,VALID,916.994,VALID,0,VALID,97.7779,VALID,0,VALID,19.3294,VALID,22,VALID,0.333203,
2009-11-16, 01:20:05,VALID,916.985,VALID,0,VALID,97.8237,VALID,0,VALID,19.3503,VALID,22,VALID,0.269141,
2009-11-16, 01:21:05,VALID,916.948,VALID,0,VALID,97.8084,VALID,0,VALID,19.3698,VALID,22,VALID,0.251563,
2009-11-16, 01:22:05,VALID,916.943,VALID,0,VALID,97.8389,VALID,0,VALID,19.3489,VALID,22,VALID,0.191016,
2009-11-16, 01:23:05,VALID,916.952,VALID,0,VALID,97.816,VALID,0,VALID,19.3698,VALID,22,VALID,0.348047,
2009-11-16, 01:24:05,VALID,916.926,VALID,0,VALID,97.8008,VALID,0,VALID,19.3489,VALID,22,VALID,0.311328,
2009-11-16, 01:25:05,VALID,916.957,VALID,0,VALID,97.8084,VALID,0,VALID,19.3698,VALID,22,VALID,0.372656,
2009-11-16, 01:26:05,VALID,916.908,VALID,0.2,VALID,97.8313,VALID,0,VALID,19.3489,VALID,22,VALID,0.466016,
2009-11-16, 01:27:05,VALID,916.906,VALID,0,VALID,97.8237,VALID,0,VALID,19.3698,VALID,22,VALID,0.502734,
2009-11-16, 01:28:05,VALID,916.89,VALID,0,VALID,97.8313,VALID,0,VALID,19.3698,VALID,22,VALID,0.371094,
2009-11-16, 01:29:05,VALID,916.881,VALID,0,VALID,97.816,VALID,0,VALID,19.3684,VALID,22,VALID,0.197266,
2009-11-16, 01:30:05,VALID,916.862,VALID,0,VALID,97.8313,VALID,0,VALID,19.3893,VALID,22,VALID,0.201562,
2009-11-16, 01:31:05,VALID,916.834,VALID,0,VALID,97.8542,VALID,0,VALID,19.4283,VALID,22,VALID,0,
2009-11-16, 01:32:05,VALID,916.831,VALID,0,VALID,97.8237,VALID,0,VALID,19.4478,VALID,22,VALID,0,
2009-11-16, 01:33:05,VALID,916.829,VALID,0,VALID,97.8237,VALID,0,VALID,19.4074,VALID,22,VALID,0,
2009-11-16, 01:34:05,VALID,916.811,VALID,0,VALID,97.8084,VALID,0,VALID,19.4283,VALID,22,VALID,0,
2009-11-16, 01:35:05,VALID,916.798,VALID,0,VALID,97.8008,VALID,0,VALID,19.3879,VALID,22,VALID,0,
2009-11-16, 01:36:05,VALID,916.778,VALID,0,VALID,97.8008,VALID,0,VALID,19.4088,VALID,22,VALID,0,
2009-11-16, 01:37:05,VALID,916.785,VALID,0,VALID,97.8389,VALID,0,VALID,19.4283,VALID,22,VALID,0,
2009-11-16, 01:38:05,VALID,916.785,VALID,0,VALID,97.816,VALID,0,VALID,19.4283,VALID,22,VALID,0,
2009-11-16, 01:39:05,VALID,916.754,VALID,0,VALID,97.8313,VALID,0,VALID,19.4268,VALID,22,VALID,0,
2009-11-16, 01:40:05,VALID,916.748,VALID,0,VALID,97.8008,VALID,0,VALID,19.4478,VALID,22,VALID,0.498437,
2009-11-16, 01:41:05,VALID,916.742,VALID,0,VALID,97.8084,VALID,0,VALID,19.4074,VALID,22,VALID,0.536719,
2009-11-16, 01:42:05,VALID,916.694,VALID,0,VALID,97.7932,VALID,0.107441,VALID,19.3879,VALID,22,VALID,0.321094,
2009-11-16, 01:43:05,VALID,916.719,VALID,0,VALID,97.8237,VALID,0,VALID,19.4088,VALID,22,VALID,0.216797,
2009-11-16, 01:44:05,VALID,916.7,VALID,0,VALID,97.8237,VALID,0,VALID,19.3879,VALID,22,VALID,0.198828,
2009-11-16, 01:45:05,VALID,916.671,VALID,0,VALID,97.8389,VALID,0,VALID,19.4088,VALID,22,VALID,0.0683594,
2009-11-16, 01:46:05,VALID,916.663,VALID,0,VALID,97.8084,VALID,0.107441,VALID,19.4074,VALID,22,VALID,0.259375,
2009-11-16, 01:47:05,VALID,916.649,VALID,0,VALID,97.8313,VALID,0,VALID,19.4088,VALID,22,VALID,0,
2009-11-16, 01:48:05,VALID,916.645,VALID,0,VALID,97.8389,VALID,0,VALID,19.4283,VALID,22,VALID,0.078125,
2009-11-16, 01:49:05,VALID,916.602,VALID,0,VALID,97.8542,VALID,0,VALID,19.4478,VALID,22,VALID,0.199609,
2009-11-16, 01:50:05,VALID,916.599,VALID,0,VALID,97.8465,VALID,0,VALID,19.4673,VALID,22,VALID,0.2375,
2009-11-16, 01:51:05,VALID,916.584,VALID,0,VALID,97.8389,VALID,0,VALID,19.4673,VALID,22,VALID,0.299219,
2009-11-16, 01:52:05,VALID,916.559,VALID,0,VALID,97.816,VALID,0,VALID,19.4268,VALID,22,VALID,0.334375,
2009-11-16, 01:53:05,VALID,916.546,VALID,0,VALID,97.816,VALID,0,VALID,19.4478,VALID,22,VALID,0.327734,
2009-11-16, 01:54:05,VALID,916.558,VALID,0,VALID,97.816,VALID,0,VALID,19.4268,VALID,22,VALID,0.385938,
2009-11-16, 01:55:05,VALID,916.527,VALID,0,VALID,97.8313,VALID,0,VALID,19.4254,VALID,22,VALID,0.149609,
2009-11-16, 01:56:05,VALID,916.521,VALID,0,VALID,97.8465,VALID,0,VALID,19.4463,VALID,22,VALID,0.251953,
2009-11-16, 01:57:05,VALID,916.472,VALID,0,VALID,97.8313,VALID,0,VALID,19.4463,VALID,22,VALID,0.125,
2009-11-16, 01:58:05,VALID,916.478,VALID,0,VALID,97.8313,VALID,0,VALID,19.4658,VALID,22,VALID,0,
2009-11-16, 01:59:05,VALID,916.433,VALID,0,VALID,97.8465,VALID,0,VALID,19.4658,VALID,22,VALID,0,
2009-11-16, 02:00:05,VALID,916.432,VALID,0,VALID,97.816,VALID,0,VALID,19.4463,VALID,22,VALID,0,
2009-11-16, 02:01:05,VALID,916.428,VALID,0,VALID,97.8313,VALID,0,VALID,19.4673,VALID,22,VALID,0,
2009-11-16, 02:02:05,VALID,916.408,VALID,0,VALID,97.8389,VALID,0,VALID,19.4658,VALID,22,VALID,0,
2009-11-16, 02:03:05,VALID,916.371,VALID,0,VALID,97.8389,VALID,0,VALID,19.4658,VALID,22,VALID,0,
2009-11-16, 02:04:05,VALID,916.387,VALID,0,VALID,97.8237,VALID,0,VALID,19.4853,VALID,22,VALID,0,
2009-11-16, 02:05:05,VALID,916.381,VALID,0,VALID,97.8389,VALID,0,VALID,19.4658,VALID,22,VALID,0,
2009-11-16, 02:06:05,VALID,916.367,VALID,0,VALID,97.8313,VALID,0,VALID,19.4868,VALID,22,VALID,0,
2009-11-16, 02:07:05,VALID,916.339,VALID,0,VALID,97.8237,VALID,0,VALID,19.4868,VALID,22,VALID,0.0015625,
2009-11-16, 02:08:05,VALID,916.373,VALID,0,VALID,97.8465,VALID,0,VALID,19.4673,VALID,22,VALID,0.0375,
2009-11-16, 02:09:05,VALID,916.334,VALID,0.2,VALID,97.8389,VALID,0,VALID,19.4658,VALID,22,VALID,0,
2009-11-16, 02:10:05,VALID,916.298,VALID,0,VALID,97.8465,VALID,0,VALID,19.4868,VALID,22,VALID,0,
2009-11-16, 02:11:05,VALID,916.295,VALID,0,VALID,97.8542,VALID,0,VALID,19.5063,VALID,22,VALID,0,
2009-11-16, 02:12:05,VALID,916.294,VALID,0,VALID,97.8237,VALID,0,VALID,19.4658,VALID,22,VALID,0,
2009-11-16, 02:13:05,VALID,916.309,VALID,0,VALID,97.8237,VALID,0,VALID,19.4853,VALID,22,VALID,0,
2009-11-16, 02:14:05,VALID,916.301,VALID,0,VALID,97.8465,VALID,0,VALID,19.4868,VALID,22,VALID,0,
2009-11-16, 02:15:05,VALID,916.325,VALID,0,VALID,97.816,VALID,0,VALID,19.4853,VALID,22,VALID,0,
2009-11-16, 02:16:05,VALID,916.265,VALID,0,VALID,97.8389,VALID,0,VALID,19.4658,VALID,22,VALID,0.15,
2009-11-16, 02:17:05,VALID,916.267,VALID,0,VALID,97.816,VALID,0,VALID,19.4463,VALID,22,VALID,0.359766,
2009-11-16, 02:18:05,VALID,916.27,VALID,0,VALID,97.8313,VALID,0,VALID,19.4463,VALID,22,VALID,0.256641,
2009-11-16, 02:19:05,VALID,916.268,VALID,0,VALID,97.8237,VALID,0,VALID,19.4463,VALID,22,VALID,0.141797,
2009-11-16, 02:20:05,VALID,916.242,VALID,0,VALID,97.8237,VALID,0,VALID,19.4673,VALID,22,VALID,0,
2009-11-16, 02:21:05,VALID,916.238,VALID,0,VALID,97.8389,VALID,0,VALID,19.4673,VALID,22,VALID,0.128516,
2009-11-16, 02:22:05,VALID,916.231,VALID,0,VALID,97.8389,VALID,0,VALID,19.4478,VALID,22,VALID,0,
2009-11-16, 02:23:05,VALID,916.18,VALID,0,VALID,97.8389,VALID,0,VALID,19.4268,VALID,22,VALID,0,
2009-11-16, 02:24:05,VALID,916.191,VALID,0,VALID,97.8389,VALID,0,VALID,19.4658,VALID,22,VALID,0,
2009-11-16, 02:25:05,VALID,916.175,VALID,0.2,VALID,97.8465,VALID,0,VALID,19.4658,VALID,22,VALID,0,
2009-11-16, 02:26:05,VALID,916.197,VALID,0,VALID,97.8465,VALID,0,VALID,19.5063,VALID,22,VALID,0,
2009-11-16, 02:27:05,VALID,916.18,VALID,0,VALID,97.8237,VALID,0,VALID,19.4868,VALID,22,VALID,0,
2009-11-16, 02:28:05,VALID,916.182,VALID,0,VALID,97.8465,VALID,0,VALID,19.4853,VALID,22,VALID,0,
2009-11-16, 02:29:05,VALID,916.151,VALID,0,VALID,97.8389,VALID,0,VALID,19.5063,VALID,22,VALID,0,
2009-11-16, 02:30:05,VALID,916.154,VALID,0,VALID,97.8389,VALID,0,VALID,19.5258,VALID,22,VALID,0,
2009-11-16, 02:31:05,VALID,916.12,VALID,0,VALID,97.8237,VALID,0,VALID,19.5048,VALID,22,VALID,0,
2009-11-16, 02:32:05,VALID,916.137,VALID,0,VALID,97.8465,VALID,0.107441,VALID,19.5048,VALID,22,VALID,0,
2009-11-16, 02:33:05,VALID,916.145,VALID,0,VALID,97.8618,VALID,0,VALID,19.5063,VALID,22,VALID,0,
2009-11-16, 02:34:05,VALID,916.109,VALID,0,VALID,97.8542,VALID,0,VALID,19.5243,VALID,22,VALID,0,
2009-11-16, 02:35:05,VALID,916.085,VALID,0.2,VALID,97.8465,VALID,0,VALID,19.5048,VALID,22,VALID,0,
2009-11-16, 02:36:05,VALID,916.118,VALID,0,VALID,97.8084,VALID,0,VALID,19.5048,VALID,22,VALID,0,
2009-11-16, 02:37:05,VALID,916.074,VALID,0,VALID,97.8237,VALID,0,VALID,19.4853,VALID,22,VALID,0,
2009-11-16, 02:38:05,VALID,916.107,VALID,0,VALID,97.8313,VALID,0,VALID,19.4868,VALID,22,VALID,0,
2009-11-16, 02:39:05,VALID,916.058,VALID,0,VALID,97.8313,VALID,0,VALID,19.4853,VALID,22,VALID,0,
2009-11-16, 02:40:05,VALID,916.077,VALID,0,VALID,97.8389,VALID,0.107441,VALID,19.5048,VALID,22,VALID,0,
2009-11-16, 02:41:05,VALID,916.069,VALID,0,VALID,97.8542,VALID,0,VALID,19.5048,VALID,22,VALID,0,
2009-11-16, 02:42:05,VALID,916.057,VALID,0,VALID,97.8542,VALID,0.107441,VALID,19.5243,VALID,22,VALID,0,
2009-11-16, 02:43:05,VALID,916.025,VALID,0,VALID,97.8389,VALID,0,VALID,19.5243,VALID,22,VALID,0,
2009-11-16, 02:44:05,VALID,916.029,VALID,0.2,VALID,97.8465,VALID,0,VALID,19.5243,VALID,22,VALID,0,
2009-11-16, 02:45:05,VALID,916.001,VALID,0,VALID,97.8389,VALID,0,VALID,19.5453,VALID,22,VALID,0,
2009-11-16, 02:46:05,VALID,916.014,VALID,0,VALID,97.8389,VALID,0,VALID,19.5243,VALID,22,VALID,0,
2009-11-16, 02:47:05,VALID,915.995,VALID,0,VALID,97.8389,VALID,0.107441,VALID,19.5243,VALID,22,VALID,0,
2009-11-16, 02:48:05,VALID,915.98,VALID,0,VALID,97.8618,VALID,0,VALID,19.5258,VALID,22,VALID,0,
2009-11-16, 02:49:05,VALID,915.989,VALID,0,VALID,97.8389,VALID,0,VALID,19.5048,VALID,22,VALID,0,
2009-11-16, 02:50:05,VALID,915.982,VALID,0,VALID,97.8389,VALID,0,VALID,19.5048,VALID,22,VALID,0,
2009-11-16, 02:51:05,VALID,915.953,VALID,0,VALID,97.8618,VALID,0,VALID,19.5453,VALID,22,VALID,0,
2009-11-16, 02:52:05,VALID,915.936,VALID,0,VALID,97.8389,VALID,0,VALID,19.5453,VALID,22,VALID,0,
2009-11-16, 02:53:05,VALID,915.932,VALID,0,VALID,97.8389,VALID,0,VALID,19.5243,VALID,22,VALID,0,
2009-11-16, 02:54:05,VALID,915.942,VALID,0,VALID,97.8389,VALID,0,VALID,19.5243,VALID,22,VALID,0,
2009-11-16, 02:55:05,VALID,915.926,VALID,0,VALID,97.8465,VALID,0,VALID,19.5438,VALID,22,VALID,0,
2009-11-16, 02:56:05,VALID,915.907,VALID,0,VALID,97.8465,VALID,0,VALID,19.5438,VALID,22,VALID,0,
2009-11-16, 02:57:05,VALID,915.913,VALID,0,VALID,97.8465,VALID,0.107441,VALID,19.5633,VALID,22,VALID,0,
2009-11-16, 02:58:05,VALID,915.905,VALID,0,VALID,97.8389,VALID,0.107441,VALID,19.5438,VALID,22,VALID,0.209375,
2009-11-16, 02:59:05,VALID,915.891,VALID,0,VALID,97.8618,VALID,0,VALID,19.5438,VALID,22,VALID,0.191406,
2009-11-16, 03:00:05,VALID,915.88,VALID,0,VALID,97.8237,VALID,0.107441,VALID,19.5438,VALID,22,VALID,0.202734,
2009-11-16, 03:01:05,VALID,915.87,VALID,0.2,VALID,97.8542,VALID,0.107441,VALID,19.5243,VALID,22,VALID,0.0496094,
2009-11-16, 03:02:05,VALID,915.825,VALID,0,VALID,97.877,VALID,0.107441,VALID,19.5438,VALID,22,VALID,0,
2009-11-16, 03:03:05,VALID,915.858,VALID,0,VALID,97.8542,VALID,0.107441,VALID,19.5438,VALID,22,VALID,0.383594,
2009-11-16, 03:04:05,VALID,915.846,VALID,0,VALID,97.8313,VALID,0,VALID,19.5243,VALID,22,VALID,0.203516,
2009-11-16, 03:05:05,VALID,915.852,VALID,0,VALID,97.8389,VALID,0,VALID,19.5048,VALID,22,VALID,0.279687,
2009-11-16, 03:06:05,VALID,915.84,VALID,0,VALID,97.8465,VALID,0,VALID,19.5243,VALID,22,VALID,0.0667969,
2009-11-16, 03:07:04,VALID,915.833,VALID,0,VALID,97.8313,VALID,0,VALID,19.5048,VALID,22,VALID,0,
2009-11-16, 03:08:04,VALID,915.838,VALID,0,VALID,97.8389,VALID,0.107441,VALID,19.5258,VALID,22,VALID,0,
2009-11-16, 03:09:04,VALID,915.85,VALID,0,VALID,97.8618,VALID,0,VALID,19.5243,VALID,22,VALID,0,
2009-11-16, 03:10:04,VALID,915.843,VALID,0,VALID,97.8389,VALID,0.107441,VALID,19.5453,VALID,22,VALID,0,
2009-11-16, 03:11:04,VALID,915.83,VALID,0,VALID,97.8542,VALID,0,VALID,19.5453,VALID,22,VALID,0,
2009-11-16, 03:12:04,VALID,915.844,VALID,0,VALID,97.8542,VALID,0,VALID,19.5243,VALID,22,VALID,0,
2009-11-16, 03:13:04,VALID,915.827,VALID,0,VALID,97.8694,VALID,0,VALID,19.5438,VALID,22,VALID,0,
2009-11-16, 03:14:04,VALID,915.839,VALID,0,VALID,97.8542,VALID,0,VALID,19.5453,VALID,22,VALID,0,
2009-11-16, 03:15:04,VALID,915.85,VALID,0,VALID,97.8542,VALID,0,VALID,19.5438,VALID,22,VALID,0,
2009-11-16, 03:16:04,VALID,915.846,VALID,0,VALID,97.8694,VALID,0.107441,VALID,19.5633,VALID,22,VALID,0,
2009-11-16, 03:17:04,VALID,915.842,VALID,0,VALID,97.8465,VALID,0,VALID,19.5828,VALID,22,VALID,0.0199219,
2009-11-16, 03:18:04,VALID,915.847,VALID,0,VALID,97.8389,VALID,0.107441,VALID,19.5828,VALID,22,VALID,0,
2009-11-16, 03:19:04,VALID,915.866,VALID,0,VALID,97.8465,VALID,0,VALID,19.5828,VALID,22,VALID,0.168359,
2009-11-16, 03:20:04,VALID,915.867,VALID,0,VALID,97.8542,VALID,0.107441,VALID,19.5633,VALID,22,VALID,0.0265625,
2009-11-16, 03:21:04,VALID,915.862,VALID,0,VALID,97.8618,VALID,0,VALID,19.6038,VALID,22,VALID,0.00703125,
2009-11-16, 03:22:04,VALID,915.856,VALID,0,VALID,97.8542,VALID,0,VALID,19.5828,VALID,22,VALID,0.276563,
2009-11-16, 03:23:04,VALID,915.863,VALID,0,VALID,97.8313,VALID,0,VALID,19.5648,VALID,22,VALID,0.241797,
2009-11-16, 03:24:04,VALID,915.863,VALID,0,VALID,97.8465,VALID,0.107441,VALID,19.5828,VALID,22,VALID,0.280469,
2009-11-16, 03:25:04,VALID,915.875,VALID,0,VALID,97.8465,VALID,0,VALID,19.5633,VALID,22,VALID,0.276172,
2009-11-16, 03:26:04,VALID,915.868,VALID,0,VALID,97.8542,VALID,0,VALID,19.5633,VALID,22,VALID,0.286719,
2009-11-16, 03:27:04,VALID,915.888,VALID,0,VALID,97.8465,VALID,0,VALID,19.5633,VALID,22,VALID,0,
2009-11-16, 03:28:04,VALID,915.871,VALID,0,VALID,97.8618,VALID,0,VALID,19.5843,VALID,22,VALID,0,
2009-11-16, 03:29:04,VALID,915.9,VALID,0,VALID,97.8465,VALID,0,VALID,19.5633,VALID,22,VALID,0,
2009-11-16, 03:30:04,VALID,915.884,VALID,0,VALID,97.8389,VALID,0,VALID,19.5633,VALID,22,VALID,0,
2009-11-16, 03:31:04,VALID,915.891,VALID,0,VALID,97.8465,VALID,0,VALID,19.5843,VALID,22,VALID,0,
2009-11-16, 03:32:04,VALID,915.894,VALID,0,VALID,97.8389,VALID,0.107441,VALID,19.5633,VALID,22,VALID,0,
2009-11-16, 03:33:04,VALID,915.867,VALID,0,VALID,97.8542,VALID,0,VALID,19.5633,VALID,22,VALID,0,
2009-11-16, 03:34:04,VALID,915.886,VALID,0,VALID,97.8542,VALID,0,VALID,19.5633,VALID,22,VALID,0,
2009-11-16, 03:35:04,VALID,915.906,VALID,0,VALID,97.8389,VALID,0.107441,VALID,19.5633,VALID,22,VALID,0,
2009-11-16, 03:36:04,VALID,915.866,VALID,0,VALID,97.8389,VALID,0,VALID,19.5438,VALID,22,VALID,0,
2009-11-16, 03:37:04,VALID,915.894,VALID,0,VALID,97.8465,VALID,0,VALID,19.5438,VALID,22,VALID,0,
2009-11-16, 03:38:04,VALID,915.894,VALID,0,VALID,97.8313,VALID,0.107441,VALID,19.5438,VALID,22,VALID,0,
2009-11-16, 03:39:04,VALID,915.893,VALID,0,VALID,97.8618,VALID,0.107441,VALID,19.5438,VALID,22,VALID,0,
2009-11-16, 03:40:04,VALID,915.898,VALID,0,VALID,97.8618,VALID,0,VALID,19.5438,VALID,22,VALID,0,
2009-11-16, 03:41:04,VALID,915.92,VALID,0,VALID,97.8465,VALID,0.107441,VALID,19.5438,VALID,22,VALID,0,
2009-11-16, 03:42:04,VALID,915.912,VALID,0,VALID,97.8465,VALID,0.107441,VALID,19.5633,VALID,22,VALID,0,
2009-11-16, 03:43:04,VALID,915.888,VALID,0,VALID,97.8542,VALID,0,VALID,19.5633,VALID,22,VALID,0,
2009-11-16, 03:44:04,VALID,915.942,VALID,0,VALID,97.8465,VALID,0,VALID,19.5438,VALID,22,VALID,0,
2009-11-16, 03:45:04,VALID,915.916,VALID,0,VALID,97.8313,VALID,0,VALID,19.5243,VALID,22,VALID,0,
2009-11-16, 03:46:04,VALID,915.893,VALID,0,VALID,97.8465,VALID,0,VALID,19.5438,VALID,22,VALID,0,
2009-11-16, 03:47:04,VALID,915.942,VALID,0,VALID,97.8465,VALID,0,VALID,19.5243,VALID,22,VALID,0,
2009-11-16, 03:48:04,VALID,915.912,VALID,0,VALID,97.8465,VALID,0,VALID,19.5243,VALID,22,VALID,0,